[[{"header":{"parameterUnit":"m.s-1","parameterCategory":1,"la1":30.2991,"la2":30.254,"lo1":-89.0895,"lo2":-89.0444,"dy":0.0017,"dx":0.0017,"nx":28,"ny":28,"refTime":"2024-06-23T09:00:00:Z","depth":0,"parameterNumber":2,"parameterNumberName":"U-component_of_WINDS"},"data":[0,0,0,0,0,0,0,0,0,0,0,0,0,0,0,0,0,0,0,0,0,0,0,0,0,0,0,0,0,0,0,0,0,0,0,0,0,0,0,0,0,0,0,0,0,0,0,0,0,0,0,0,0,0,0,0,0,0,1.3986,1.3987,0,1.4077,1.4078,1.4079,1.4102,1.4101,1.4101,1.41,1.4193,1.4196,1.4199,0,0,0,0,0,0,0,0,0,0,0,0,0,1.3829,1.3832,1.3986,1.3987,1.3988,1.4077,1.4078,1.408,1.4102,1.4101,1.4101,1.41,1.4192,1.4196,1.4199,0,0,0,0,0,0,0,0,0,0,0,0,0,1.3906,1.3833,1.3986,1.401,1.4013,1.4077,1.4078,1.408,1.4102,1.4101,1.41,1.41,1.4191,1.4195,1.42,1.4245,0,0,1.4214,1.4216,0,0,0,0,0,0,0,0,1.3902,1.3912,1.4005,1.4008,1.4012,1.4077,1.4057,1.4135,1.4102,1.4068,1.41,1.4099,1.4155,1.4163,1.4182,1.425,1.4254,1.4214,1.4217,1.4219,1.422,0,0,0,0,0,0,0,1.3897,1.3908,1.4022,1.4007,1.4011,1.4016,1.4026,1.4072,1.4116,1.4071,1.4073,1.4084,1.4157,1.4177,1.4184,1.4255,1.4214,1.4218,1.4221,1.4222,1.4364,1.4365,0,0,0,0,0,0,1.3887,1.3904,1.4019,1.4025,1.3954,1.4019,1.4031,1.4057,1.4115,1.4123,1.4084,1.4084,1.417,1.4179,1.4187,1.4244,1.4219,1.4223,1.4226,1.4363,1.4364,1.4365,0,0,0,0,0,0,1.3884,1.3897,1.4015,1.3965,1.398,1.4023,1.4053,1.406,1.408,1.4125,1.4133,1.4097,1.417,1.4181,1.4231,1.4247,1.4225,1.4229,1.4362,1.4363,1.4365,1.4357,0,0,0,0,0,0,1.3879,1.3896,1.3914,1.3965,1.3983,1.4057,1.4054,1.4062,1.4088,1.4089,1.4139,1.4147,1.417,1.4224,1.4235,1.4253,1.4233,1.436,1.4362,1.4364,1.4356,1.4358,1.436,0,0,0,0,0,1.3873,1.3908,1.3915,1.3929,1.4007,1.4058,1.4069,1.4095,1.4089,1.4107,1.4136,1.4145,1.4244,1.4229,1.4242,1.4261,1.4359,1.4362,1.4364,1.4355,1.4357,1.436,0,0,0,0,0,0,1.3858,1.3916,1.3923,1.3976,1.4012,1.4062,1.4086,1.4097,1.4135,1.4134,1.4165,1.4176,1.4223,1.4247,1.4229,1.4308,1.4301,1.4306,1.429,1.4293,1.4295,1.4287,1.4236,0,0,0,0,0,1.3861,1.3899,1.3947,1.3988,1.4006,1.4043,1.4066,1.4083,1.4122,1.4137,1.417,1.4207,1.4246,1.4271,1.431,1.436,1.437,1.4379,1.4381,1.4383,1.4386,1.4413,1.4418,1.4373,1.4373,1.4373,0,0,1.3867,1.3903,1.3925,1.3986,1.4016,1.4054,1.4056,1.4096,1.4124,1.4143,1.4192,1.4217,1.426,1.4309,1.4333,1.4331,1.4401,1.4386,1.4387,1.439,1.4416,1.442,1.4424,1.4375,1.4374,1.4374,0,0,1.3897,1.3928,1.3966,1.3996,1.4041,1.4065,1.4074,1.4123,1.414,1.4189,1.4204,1.4238,1.4305,1.4335,1.4359,1.4399,1.4408,1.4411,1.4421,1.4447,1.445,1.4453,1.4466,1.4471,1.4415,1.4415,1.4415,0,1.3898,1.3956,1.3984,1.4023,1.4049,1.4069,1.4106,1.4134,1.4189,1.4206,1.4204,1.4288,1.4318,1.4374,1.4384,1.4403,1.4413,1.4405,1.4447,1.4451,1.4454,1.4467,1.4472,1.4414,1.4414,1.4414,1.4414,0,1.3955,1.3995,1.4019,1.4072,1.4101,1.4139,1.4172,1.4198,1.4212,1.4236,1.4286,1.4323,1.4369,1.4384,1.4398,1.4442,1.4439,1.4442,1.4436,1.4458,1.447,1.4476,1.4414,1.4414,1.4414,1.4414,0,0,1.3977,1.4045,1.4053,1.4077,1.4128,1.4159,1.4198,1.4243,1.4264,1.4301,1.4334,1.439,1.4392,1.4419,1.4437,1.446,1.4488,1.446,1.4461,1.4463,1.4537,1.4533,1.4539,1.4495,1.4496,1.4497,1.4532,0,1.4012,1.4082,1.4108,1.4165,1.4201,1.422,1.4254,1.4288,1.4312,1.4346,1.4372,1.441,1.4412,1.4428,1.4451,1.4479,1.4503,1.4478,1.4524,1.4526,1.4511,1.4545,1.4542,1.4574,1.4538,1.4539,1.4539,0,1.4062,1.41,1.4161,1.4207,1.4223,1.4253,1.4295,1.4328,1.4367,1.4383,1.4412,1.4429,1.4469,1.4461,1.4517,1.4499,1.452,1.4536,1.4538,1.4542,1.4533,1.4549,1.4585,1.4589,1.4547,1.4547,1.4546,0,1.4071,1.4137,1.4182,1.4201,1.4256,1.4277,1.43,1.4339,1.4364,1.4401,1.4418,1.4459,1.4482,1.4513,1.454,1.4532,1.4592,1.4587,1.4605,1.4605,1.4616,1.4615,1.4655,1.4632,1.4632,1.4632,1.4631,0,1.4106,1.4142,1.4186,1.4213,1.4253,1.4283,1.4322,1.4347,1.4381,1.4413,1.4432,1.4461,1.4496,1.4529,1.4551,1.4592,1.4603,1.4616,1.4621,1.4613,1.4611,1.4626,1.4624,1.4633,1.4633,1.4632,1.4632,0,1.4122,1.4153,1.4202,1.425,1.4263,1.4291,1.4331,1.4358,1.4382,1.4422,1.4433,1.4472,1.4512,1.4542,1.4595,1.4609,1.4653,1.4659,1.464,1.4642,1.4658,1.4655,1.4708,1.4715,1.4688,1.4688,1.4689,0,1.4142,1.417,1.4221,1.4244,1.4267,1.4304,1.4329,1.4359,1.4385,1.4431,1.4452,1.4494,1.4529,1.4592,1.4625,1.4665,1.4671,1.4686,1.4677,1.4668,1.4669,1.4667,1.4669,1.4687,1.4687,1.4687,1.4687,0,1.4174,1.4188,1.4224,1.4265,1.4295,1.4329,1.4363,1.4381,1.4416,1.4444,1.4486,1.4513,1.4566,1.4607,1.465,1.4674,1.4686,1.469,1.4696,1.4689,1.4676,1.4681,1.4642,1.4689,1.4689,1.4689,1.4688,1.4688,1.4192,1.4217,1.4256,1.4296,1.4325,1.4356,1.4383,1.4411,1.4446,1.4492,1.4507,1.455,1.4588,1.4647,1.4671,1.4705,1.4704,1.4714,1.4716,1.4717,1.4716,1.4671,1.4713,1.4713,1.4713,1.4713,1.4713,0,1.4223,1.4249,1.4285,1.4333,1.4363,1.4373,1.4411,1.4436,1.4473,1.4508,1.4541,1.4589,1.4628,1.4663,1.4704,1.4724,1.4731,1.4734,1.4732,1.4737,1.4714,1.4704,1.4728,1.4728,1.4728,1.4728,1.4728,1.4728,1.4243,1.4286,1.4304,1.4361,1.4387,1.4429,1.445,1.4479,1.4506,1.4558,1.4591,1.4614,1.4648,1.4692,1.4728,1.4738,1.4751,1.4753,1.4763,1.4741,1.4739,1.4737,1.4728,1.4756,1.4756,1.4783,1.4784,1.4784]},{"header":{"parameterUnit":"m.s-1","parameterCategory":1,"la1":30.2991,"la2":30.254,"lo1":-89.0895,"lo2":-89.0444,"dy":0.0017,"dx":0.0017,"nx":28,"ny":28,"refTime":"2024-06-23T09:00:00:Z","depth":0,"parameterNumber":3,"parameterNumberName":"V-component_of_WINDS"},"data":[0,0,0,0,0,0,0,0,0,0,0,0,0,0,0,0,0,0,0,0,0,0,0,0,0,0,0,0,0,0,0,0,0,0,0,0,0,0,0,0,0,0,0,0,0,0,0,0,0,0,0,0,0,0,0,0,0,0,1.6982,1.6982,0,1.6952,1.6952,1.6952,1.6889,1.6888,1.6886,1.6885,1.6855,1.6855,1.6856,0,0,0,0,0,0,0,0,0,0,0,0,0,1.6986,1.6986,1.6982,1.6982,1.6982,1.6952,1.6952,1.6951,1.6889,1.6887,1.6886,1.6884,1.6855,1.6855,1.6856,0,0,0,0,0,0,0,0,0,0,0,0,0,1.6973,1.6986,1.6982,1.6947,1.6943,1.6952,1.6952,1.6951,1.6889,1.6887,1.6886,1.6884,1.6855,1.6855,1.6856,1.6897,0,0,1.6858,1.6858,0,0,0,0,0,0,0,0,1.6974,1.6973,1.6952,1.6949,1.6945,1.6922,1.6942,1.6933,1.689,1.691,1.6885,1.6883,1.6879,1.6877,1.6876,1.6896,1.6895,1.6858,1.6858,1.6858,1.6858,0,0,0,0,0,0,0,1.6975,1.6974,1.697,1.6952,1.6948,1.6932,1.6929,1.694,1.6905,1.6908,1.6903,1.6901,1.6877,1.6876,1.6875,1.6894,1.6858,1.6858,1.6858,1.6859,1.6945,1.6947,0,0,0,0,0,0,1.6981,1.6975,1.6971,1.6969,1.6955,1.6934,1.693,1.6932,1.6905,1.6899,1.6902,1.6898,1.6876,1.6874,1.6874,1.6919,1.6858,1.6859,1.6859,1.6943,1.6946,1.6948,0,0,0,0,0,0,1.6981,1.6981,1.6973,1.6971,1.6969,1.6936,1.6939,1.6932,1.6931,1.6901,1.6894,1.6907,1.6874,1.6873,1.6891,1.6917,1.6859,1.686,1.6941,1.6944,1.6947,1.7011,0,0,0,0,0,0,1.6981,1.6981,1.6997,1.6972,1.6969,1.6991,1.694,1.6933,1.6932,1.6926,1.6904,1.6899,1.6872,1.6891,1.6892,1.6917,1.686,1.6938,1.6942,1.6946,1.7007,1.7016,1.7024,0,0,0,0,0,1.6982,1.7017,1.6998,1.6998,1.6988,1.6993,1.6991,1.696,1.6934,1.6949,1.693,1.6899,1.6915,1.6893,1.6894,1.692,1.6937,1.6941,1.6945,1.7003,1.7014,1.7024,0,0,0,0,0,0,1.7046,1.7013,1.6992,1.7019,1.7009,1.6982,1.7,1.6974,1.6971,1.6965,1.6927,1.6923,1.6946,1.6935,1.6912,1.6958,1.6921,1.6925,1.6964,1.6975,1.6983,1.6985,1.686,0,0,0,0,0,1.7064,1.707,1.7041,1.7068,1.7064,1.7033,1.7035,1.7012,1.7,1.6995,1.6977,1.6967,1.6969,1.6971,1.6972,1.7005,1.6999,1.7023,1.7032,1.7039,1.7043,1.7059,1.7069,1.6962,1.6962,1.6962,0,0,1.71,1.7082,1.7089,1.7081,1.707,1.7078,1.703,1.7041,1.7046,1.6997,1.7013,1.7,1.6985,1.7011,1.7022,1.7002,1.7071,1.7045,1.7051,1.7051,1.7064,1.7074,1.7083,1.6965,1.6965,1.6964,0,0,1.7169,1.7157,1.7178,1.7168,1.7152,1.7132,1.7137,1.7113,1.7102,1.7118,1.7081,1.7087,1.7092,1.7083,1.7079,1.7145,1.7116,1.7146,1.7192,1.7207,1.7215,1.7223,1.7245,1.7254,1.7151,1.7151,1.7151,0,1.7215,1.7226,1.7192,1.7204,1.7202,1.7157,1.7178,1.717,1.7156,1.7155,1.7134,1.7138,1.7126,1.7149,1.7164,1.7163,1.7167,1.7148,1.7217,1.7224,1.723,1.7251,1.726,1.7155,1.7154,1.7154,1.7154,0,1.7283,1.7291,1.731,1.7296,1.7296,1.7313,1.7281,1.7285,1.7262,1.7244,1.726,1.7243,1.7239,1.7243,1.7221,1.7262,1.725,1.7224,1.7186,1.7245,1.7263,1.7271,1.716,1.7159,1.7158,1.7157,0,0,1.7392,1.7359,1.7367,1.7359,1.7339,1.7344,1.7359,1.7355,1.7358,1.735,1.736,1.7366,1.734,1.7336,1.7313,1.7327,1.7378,1.7298,1.7297,1.7313,1.7422,1.7441,1.7451,1.736,1.7361,1.7362,1.7422,0,1.7455,1.7478,1.7448,1.7477,1.7483,1.7441,1.7454,1.7442,1.7425,1.7428,1.7409,1.7413,1.738,1.7377,1.7389,1.737,1.74,1.7365,1.7369,1.7369,1.7372,1.7461,1.7482,1.7539,1.743,1.7431,1.7432,0,1.7532,1.7527,1.7557,1.7534,1.7535,1.7547,1.754,1.7544,1.753,1.7516,1.7512,1.7484,1.7496,1.746,1.7476,1.7453,1.7453,1.7444,1.7445,1.7443,1.7403,1.746,1.7557,1.7565,1.7443,1.7442,1.7442,0,1.7607,1.7608,1.7625,1.7621,1.7594,1.7603,1.7593,1.7577,1.7577,1.7571,1.757,1.7566,1.7563,1.7561,1.7532,1.7509,1.7552,1.7513,1.754,1.7541,1.755,1.755,1.7647,1.7553,1.7552,1.7552,1.7552,0,1.768,1.77,1.7658,1.7669,1.7689,1.7655,1.7676,1.7661,1.7648,1.7655,1.7618,1.7626,1.7588,1.7591,1.7569,1.7585,1.7585,1.7574,1.7568,1.7577,1.7578,1.7575,1.757,1.7554,1.7554,1.7554,1.7553,0,1.7767,1.7739,1.7755,1.7729,1.7723,1.7739,1.7717,1.7726,1.7706,1.7715,1.7716,1.7685,1.7687,1.7659,1.7655,1.764,1.7666,1.7653,1.767,1.7666,1.7694,1.7691,1.7792,1.7803,1.7703,1.7704,1.7704,0,1.7815,1.7829,1.7804,1.7806,1.7797,1.7801,1.7799,1.7766,1.7766,1.7751,1.7762,1.7761,1.7758,1.7762,1.774,1.7737,1.7723,1.7758,1.7722,1.7731,1.7722,1.7721,1.7722,1.7766,1.7767,1.7768,1.7769,0,1.7903,1.7888,1.7888,1.7882,1.7882,1.7876,1.7868,1.7872,1.7835,1.7837,1.7838,1.7836,1.7832,1.7831,1.7824,1.7813,1.7785,1.7781,1.7786,1.7795,1.7804,1.7798,1.769,1.7778,1.7777,1.7777,1.7776,1.7776,1.797,1.798,1.7964,1.7964,1.7955,1.7948,1.7954,1.7936,1.7936,1.793,1.7911,1.7915,1.79,1.7887,1.7879,1.7882,1.7864,1.7873,1.7875,1.7878,1.7882,1.7805,1.7881,1.788,1.788,1.788,1.7879,0,1.8055,1.8042,1.8043,1.8033,1.8033,1.8007,1.7996,1.7998,1.8002,1.7991,1.7989,1.799,1.7989,1.7966,1.7962,1.7969,1.7956,1.7969,1.7967,1.7965,1.7899,1.7893,1.7979,1.7979,1.7979,1.7979,1.7979,1.7979,1.8099,1.8114,1.8098,1.8108,1.8095,1.8099,1.8095,1.8089,1.8079,1.8082,1.8081,1.8066,1.805,1.8044,1.8042,1.8035,1.8035,1.8052,1.8041,1.798,1.797,1.7961,1.7955,1.8053,1.8053,1.8107,1.8108,1.8108]}]]